Saßnitz

Germany     54˚30′40″N   13˚37′39″E
temp.,
°C
wind,
m/s
gust,
m/s
humid.,
%
clouds,
%
prec.,
mm/h
press.,
hPa
HPBL,
m
29 november, sun
sun2901:00+7˚nne877792 0.3 1027752
04:00+6˚nne777420 0.1 1026905
07:00+6˚nne777160 0.1 10261029
10:00+5˚n7776100 0.1 1026728
13:00+5˚n667583 0.1 1026668
16:00+5˚n657977 0.0 1025651
19:00+5˚nnw557588 0.1 1025597
22:00+5˚nw557559 0.0 1025618
30 november, mon
mon3001:00+5˚nw557544 0.0 1025519
04:00+4˚wnw557321 0.0 1023645
07:00+4˚nw457334 0.0 1024821
10:00+5˚wnw5675100 0.1 1023782
13:00+5˚wsw6679100 0.3 1022702
16:00+5˚sw8977100 0.2 1021612
19:00+4˚sw91081100 0.3 1019574
22:00+4˚ssw8981100 0.0 1018525
1 december, tue
tue101:00+4˚ssw91082100 0.0 1017560
04:00+3˚s91096100 0.1 1016475
07:00+3˚s8897100 0.4 1017373
10:00+4˚sse7693100 0.2 1017357
13:00+3˚sse5593100 0.3 1019407
16:00+4˚se5586100 0.1 1020494
19:00+5˚ese5581100 0.3 1022542
22:00+5˚ese5573100 0.0 1023721
2 december, wed
wed201:00+5˚ese557277 0.0 1024630
04:00+5˚ese55710 0.0 1024657
07:00+4˚ese66730 0.0 1024673
10:00+4˚se66740 0.0 1024685
13:00+3˚se66720 0.0 1022638
16:00+4˚se67680 0.0 1021759
19:00+4˚sse77710 0.0 1020781
22:00+3˚sse557323 0.0 1019757
3 december, thu
thu301:00+3˚s557330 0.0 1018674
04:00+2˚s55730 0.0 1016630
07:00+2˚sse66730 0.0 1015567
10:00+3˚sse78720 0.0 1014593
13:00+3˚sse787012 0.0 1012621
16:00+3˚se666979 0.0 1010651
19:00+3˚se997253 0.0 1009744
22:00+3˚sse787481 0.0 1008740